Location: Addison Town Hall
(32.9525°N, 96.8158°W)
Time: 21:41:07
(UTC+00:00)

Cosmos 1812 - Pass Details

Date: 08 March 2021
Orbit: 516 x 520 km, 82.5° (Epoch: 11 April)

Event Time Altitude Azimuth Distance (km) Brightness Sun altitude
Rises 12:04:56 0° 191° (S) 2,626 6.2 -9.5°
Reaches altitude 10° 12:07:04 10° 194° (SSW) 1,742 5.2 -9.0°
Maximum altitude 12:10:52 67° 277° (W) 564 2.6 -8.2°
Drops below altitude 10° 12:14:41 10° 0° (N) 1,752 5.4 -7.4°
Sets 12:16:51 0° 4° (N) 2,642 6.3 -7.0°
